Date String (YYYY-MM-DD hh:mm:ss) UTC,Instrument flags,absolute air pressure of the measurement (hPa),sample flow rate (lpm),inlet stack bypass flow (lpm),air temperature of the measurement (°C),ambient temperature measured by the external sensor (°C),aerosol sample conditioner tube jacket temperature (°C),OPC LED temperature (°C),internal box temperature (°C),relative humidity of the measurement (%),span deviation,mass concentration of particles derived from Lorenz-Mie calculation of OPC scattering (μg/m³),mass concentration of particles derived from Lorenz-Mie calculation of OPC scattering (μg/m³),mass concentration of particles derived from Lorenz-Mie calculation of OPC scattering (μg/m³)
DateTimeUTC,F1_M11,P_M11,Q1_M11,Q2_M11,T1_M11,T2_M11,T3_M11,T4_M11,T5_M11,U1_M11,ZSPAN_M11,X2_M11,X0_M11,X1_M11
2023-06-22 16:00:00,SystemResetWarning,0831.7,4.99,000.00,029.7,027.9,000.0,038.2,031.2,28.6,0000.0,0003.93,0008.02,0003.54
2023-06-22 16:01:00,SystemResetWarning,0831.7,5.00,000.00,029.7,028.1,000.0,038.2,031.2,29.5,0000.0,0003.91,0007.70,0003.50
2023-06-22 16:02:00,SystemResetWarning,0831.7,5.00,000.00,029.7,028.2,000.0,038.2,031.2,30.2,0000.0,0003.90,0007.79,0003.48
2023-06-22 16:03:00,SystemResetWarning,0831.7,5.00,000.00,029.7,028.3,000.0,038.2,031.3,30.5,0000.0,0003.88,0007.97,0003.45
2023-06-22 16:04:00,SystemResetWarning,0831.7,5.00,000.00,029.8,028.3,000.0,038.2,031.3,29.0,0000.0,0003.85,0007.92,0003.42
2023-06-22 16:05:00,SystemResetWarning,0831.9,4.99,000.00,029.8,027.3,000.0,038.2,031.4,29.2,0000.0,0003.80,0007.79,0003.39
2023-06-22 16:06:00,SystemResetWarning,0831.9,5.00,000.00,029.8,025.3,000.0,038.1,031.3,28.6,0000.0,0003.76,0007.72,0003.37
2023-06-22 16:07:00,SystemResetWarning,0831.7,5.00,000.00,029.7,024.8,000.0,038.1,031.3,29.1,0000.0,0003.73,0007.61,0003.36
2023-06-22 16:08:00,SystemResetWarning,0831.7,5.01,000.00,029.6,025.0,000.0,038.1,030.9,28.9,0000.0,0003.71,0007.58,0003.35
2023-06-22 16:09:00,SystemResetWarning,0831.7,5.01,000.00,029.5,025.4,000.0,038.1,030.8,29.8,0000.0,0003.69,0007.58,0003.33
2023-06-22 16:10:00,SystemResetWarning,0832.2,5.00,000.00,029.5,025.9,000.0,038.1,030.8,29.7,0000.0,0003.64,0008.01,0003.29
2023-06-22 16:11:00,SystemResetWarning,0832.0,5.00,000.00,029.5,026.3,000.0,038.1,030.9,29.2,0000.0,0003.60,0008.15,0003.25
2023-06-22 16:12:00,SystemResetWarning,0831.9,5.00,000.00,029.5,026.7,000.0,038.1,030.9,28.9,0000.0,0003.56,0007.44,0003.23
2023-06-22 16:13:00,SystemResetWarning,0831.9,4.99,000.00,029.5,027.0,000.0,038.1,030.9,30.4,0000.0,0003.51,0007.42,0003.21
2023-06-22 16:14:00,SystemResetWarning,0831.9,5.00,000.00,029.5,027.2,000.0,038.1,030.9,29.6,0000.0,0003.48,0007.53,0003.17
2023-06-22 16:15:00,SystemResetWarning,0831.8,5.01,000.00,029.5,027.5,000.0,038.1,031.0,30.7,0000.0,0003.40,0007.21,0003.12
2023-06-22 16:16:00,SystemResetWarning,0832.0,5.01,000.00,029.5,027.7,000.0,038.1,031.1,30.6,0000.0,0003.35,0007.18,0003.06
2023-06-22 16:17:00,SystemResetWarning,0832.2,5.00,000.00,029.6,027.8,000.0,038.1,031.1,31.8,0000.0,0003.32,0007.26,0002.99
2023-06-22 16:18:00,SystemResetWarning,0831.9,5.00,000.00,029.6,027.9,000.0,038.1,031.1,33.2,0000.0,0003.29,0007.19,0002.91
2023-06-22 16:19:00,SystemResetWarning,0832.0,4.99,000.00,029.6,028.1,000.0,038.1,031.1,30.6,0000.0,0003.26,0007.15,0002.83
2023-06-22 16:20:00,SystemResetWarning,0831.8,5.00,000.00,029.6,028.2,000.0,038.1,031.2,29.7,0000.0,0003.24,0007.53,0002.76
2023-06-22 16:21:00,SystemResetWarning,0831.8,5.01,000.00,029.7,028.2,000.0,038.1,031.2,30.8,0000.0,0003.21,0007.33,0002.72
2023-06-22 16:22:00,SystemResetWarning,0831.8,4.99,000.00,029.7,028.3,000.0,038.2,031.3,31.9,0000.0,0003.20,0007.06,0002.70
2023-06-22 16:23:00,SystemResetWarning,0832.0,4.99,000.00,029.7,028.2,000.0,038.2,031.3,31.9,0000.0,0003.22,0007.62,0002.67
2023-06-22 16:24:00,SystemResetWarning,0832.1,5.00,000.00,029.8,026.5,000.0,038.1,031.3,30.1,0000.0,0003.21,0007.53,0002.64
2023-06-22 16:25:00,SystemResetWarning,0832.2,5.00,000.00,029.7,025.0,000.0,038.1,031.2,30.6,0000.0,0003.18,0007.23,0002.63
2023-06-22 16:26:00,SystemResetWarning,0832.0,5.01,000.00,029.7,024.8,000.0,038.0,031.1,31.3,0000.0,0003.18,0007.14,0002.63
2023-06-22 16:27:00,SystemResetWarning,0831.9,5.01,000.00,029.5,025.1,000.0,038.0,030.8,32.4,0000.0,0003.19,0007.07,0002.64
2023-06-22 16:28:00,SystemResetWarning,0831.7,5.00,000.00,029.5,025.5,000.0,038.0,030.8,30.2,0000.0,0003.20,0006.95,0002.65
2023-06-22 16:29:00,SystemResetWarning,0831.7,5.00,000.00,029.5,026.0,000.0,038.0,030.8,30.7,0000.0,0003.20,0006.95,0002.66
2023-06-22 16:30:00,SystemResetWarning,0831.7,5.00,000.00,029.4,026.4,000.0,038.0,030.8,32.0,0000.0,0003.21,0007.04,0002.66
2023-06-22 16:31:00,SystemResetWarning,0831.8,5.00,000.00,029.5,026.8,000.0,038.0,030.9,32.0,0000.0,0003.19,0006.33,0002.65
2023-06-22 16:32:00,SystemResetWarning,0832.1,5.00,000.00,029.5,027.1,000.0,038.0,030.9,31.8,0000.0,0003.21,0006.03,0002.65
2023-06-22 16:33:00,SystemResetWarning,0832.1,5.00,000.00,029.5,027.3,000.0,038.0,031.0,31.3,0000.0,0003.20,0005.46,0002.66
2023-06-22 16:34:00,SystemResetWarning,0832.0,5.00,000.00,029.5,027.5,000.0,038.0,031.0,30.5,0000.0,0003.17,0005.13,0002.65
2023-06-22 16:35:00,SystemResetWarning,0831.9,5.01,000.00,029.5,027.7,000.0,038.0,031.0,30.5,0000.0,0003.18,0006.14,0002.64
2023-06-22 16:36:00,SystemResetWarning,0832.0,5.01,000.00,029.5,027.9,000.0,038.1,031.1,30.2,0000.0,0003.20,0007.96,0002.65
2023-06-22 16:37:00,SystemResetWarning,0832.0,5.01,000.00,029.6,028.0,000.0,038.1,031.1,30.7,0000.0,0003.21,0008.04,0002.66
2023-06-22 16:38:00,SystemResetWarning,0831.7,5.00,000.00,029.6,028.1,000.0,038.1,031.2,30.5,0000.0,0003.22,0008.03,0002.68
2023-06-22 16:39:00,SystemResetWarning,0831.7,4.98,000.00,029.6,028.2,000.0,038.1,031.2,30.9,0000.0,0003.24,0008.16,0002.69
2023-06-22 16:40:00,SystemResetWarning,0831.8,5.01,000.00,029.7,028.3,000.0,038.1,031.2,29.8,0000.0,0003.26,0008.24,0002.69
2023-06-22 16:41:00,SystemResetWarning,0831.7,5.00,000.00,029.7,027.6,000.0,038.1,031.3,29.3,0000.0,0003.24,0008.20,0002.71
2023-06-22 16:42:00,SystemResetWarning,0831.7,5.00,000.00,029.7,025.6,000.0,038.0,031.2,29.4,0000.0,0003.25,0008.30,0002.72
2023-06-22 16:43:00,SystemResetWarning,0831.7,5.00,000.00,029.6,024.7,000.0,038.0,031.1,31.0,0000.0,0003.26,0008.32,0002.74
2023-06-22 16:44:00,SystemResetWarning,0831.7,5.00,000.00,029.6,024.8,000.0,038.0,030.9,30.6,0000.0,0003.25,0008.53,0002.75
2023-06-22 16:45:00,SystemResetWarning,0831.7,5.01,000.00,029.5,025.2,000.0,038.0,030.7,30.8,0000.0,0003.27,0009.08,0002.77
2023-06-22 16:46:00,SystemResetWarning,0831.6,5.00,000.00,029.4,025.7,000.0,038.0,030.7,30.3,0000.0,0003.30,0008.77,0002.81
2023-06-22 16:47:00,SystemResetWarning,0831.7,5.00,000.00,029.4,026.1,000.0,038.0,030.7,30.5,0000.0,0003.35,0007.53,0002.83
2023-06-22 16:48:00,SystemResetWarning,0831.7,5.00,000.00,029.4,026.5,000.0,038.0,030.8,31.1,0000.0,0003.36,0007.58,0002.84
2023-06-22 16:49:00,SystemResetWarning,0831.7,5.00,000.00,029.4,026.9,000.0,038.0,030.8,31.2,0000.0,0003.37,0008.54,0002.85
2023-06-22 16:50:00,SystemResetWarning,0831.7,5.00,000.00,029.4,027.2,000.0,038.0,030.9,31.1,0000.0,0003.36,0008.99,0002.85
2023-06-22 16:51:00,SystemResetWarning,0831.7,5.00,000.00,029.4,027.4,000.0,038.0,030.9,30.1,0000.0,0003.39,0009.10,0002.85
2023-06-22 16:52:00,SystemResetWarning,0831.7,5.01,000.00,029.5,027.6,000.0,038.0,031.0,30.0,0000.0,0003.42,0009.28,0002.86
2023-06-22 16:53:00,SystemResetWarning,0831.7,4.99,000.00,029.5,027.8,000.0,038.0,031.0,30.6,0000.0,0003.44,0009.24,0002.85
2023-06-22 16:54:00,SystemResetWarning,0831.7,4.99,000.00,029.5,027.9,000.0,038.0,031.1,30.6,0000.0,0003.48,0009.37,0002.85
2023-06-22 16:55:00,SystemResetWarning,0831.7,4.99,000.00,029.5,028.0,000.0,038.0,031.1,30.4,0000.0,0003.49,0009.25,0002.84
2023-06-22 16:56:00,SystemResetWarning,0831.7,5.00,000.00,029.6,028.1,000.0,038.0,031.1,31.1,0000.0,0003.48,0008.30,0002.83
2023-06-22 16:57:00,SystemResetWarning,0831.7,5.00,000.00,029.6,028.2,000.0,038.1,031.2,30.6,0000.0,0003.44,0008.19,0002.82
2023-06-22 16:58:00,SystemResetWarning,0831.7,5.00,000.00,029.6,027.7,000.0,038.1,031.3,29.3,0000.0,0003.40,0008.88,0002.81
2023-06-22 16:59:00,SystemResetWarning,0831.6,5.00,000.00,029.6,026.0,000.0,038.0,031.2,30.5,0000.0,0003.39,0008.79,0002.80
